{"data":{"norad_id":56419,"intl_designator":"2023-061AX","name":"STARLINK-5350","alt_names":[],"object_type":"PAYLOAD","status":"ACTIVE","operator":null,"country":"US","launch_date":"2023-05-04","launch_site_code":"AFETR","launch_vehicle":null,"mission":null,"orbit_class":"UNKNOWN","rcs_meters":null,"size_class":null,"mass_kg":null,"dimensions":null,"purposes":["comms"],"wikipedia_slug":null,"has_3d_model":false,"image_url":null,"decayed_at":null,"tle_current":{"epoch":"2026-05-25T04:40:34.588128Z","epoch_age_seconds":51579,"freshness":"FRESH","line1":"1 56419U 23061AX  26145.19484477  .00003595  00000+0  14012-3 0  9991","line2":"2 56419  43.0021 115.0929 0000834 253.1548 106.9212 15.27572084168576","mean_motion":15.27572084,"eccentricity":8.34e-5,"inclination_deg":43.0021,"raan_deg":115.0929,"arg_perigee_deg":253.1548,"mean_anomaly_deg":106.9212,"bstar":0.00014012,"rev_number":16857,"period_min":94.267237211439,"perigee_km":482.5005745965,"apogee_km":483.64502439106,"semimajor_km":6861.2097994938,"source":"CELESTRAK","updated_at":"2026-05-25T13:38:18.063255Z"}}}